Hourly Data Report for January 13, 2018

All times are specified in Local Standard Time (LST). Add 1 hour to adjust for Daylight Saving Time where and when it is observed.

TORONTO INTL A
ONTARIO

43°40'36.000" N
79°37'50.000" W
173.40 m
6158731
71624
YYZ

Download Data

Hourly Data (January 2018)
Hourly Data Report for January 13, 2018
Temp Definition
°C
Dew Point Temp Definition
°C
Rel Hum Definition
%
Wind Dir Definition
10's deg

Wind Spd Definition
km/h
Visibility Definition
km
Stn Press Definition
kPa
Hmdx Definition


Wind Chill Definition


Weather Definition


TIME
00:00 Legend Double Dagger -12.1 -16.8 69 35 37 24.1 99.70   -23 LegendNANA
01:00 Legend Double Dagger -12.4 -17.1 69 35 31 24.1 99.63   -23 Cloudy
02:00 Legend Double Dagger -12.8 -17.5 68 35 39 24.1 99.58   -24 LegendNANA
03:00 Legend Double Dagger -13.2 -18.2 66 34 44 24.1 99.73   -26 LegendNANA
04:00 Legend Double Dagger -13.4 -19.0 63 34 42 24.1 99.81   -26 Cloudy
05:00 Legend Double Dagger -13.6 -19.8 60 34 36 24.1 99.85   -25 LegendNANA
06:00 Legend Double Dagger -13.8 -20.3 58 35 37 24.1 99.97   -25 LegendNANA
07:00 Legend Double Dagger -14.1 -20.4 59 35 33 24.1 100.13   -25 Cloudy
08:00 Legend Double Dagger -14.1 -19.8 62 34 30 24.1 100.24   -25 LegendNANA
09:00 Legend Double Dagger -14.0 -19.2 65 34 35 24.1 100.34   -25 LegendNANA
10:00 Legend Double Dagger -13.5 -18.7 65 34 35 24.1 100.49   -25 Mainly Clear
11:00 Legend Double Dagger -12.8 -18.9 61 35 30 24.1 100.53   -23 LegendNANA
12:00 Legend Double Dagger -12.2 -19.0 57 33 36 24.1 100.57   -23 LegendNANA
13:00 Legend Double Dagger -12.1 -19.2 56 34 27 24.1 100.58   -22 Clear
14:00 Legend Double Dagger -11.9 -19.4 54 33 31 24.1 100.63   -22 LegendNANA
15:00 Legend Double Dagger -12.4 -20.3 52 35 26 24.1 100.71   -22 LegendNANA
16:00 Legend Double Dagger -12.6 -20.6 52 34 20 24.1 100.84   -21 Mostly Cloudy
17:00 Legend Double Dagger -12.8 -20.9 51 32 25 24.1 100.94   -22 LegendNANA
18:00 Legend Double Dagger -13.5 -20.9 54 32 19 24.1 101.05   -22 LegendNANA
19:00 Legend Double Dagger -13.9 -20.7 57 31 25 24.1 101.10   -24 Clear
20:00 Legend Double Dagger -14.2 -20.9 58 31 17 24.1 101.17   -22 LegendNANA
21:00 Legend Double Dagger -14.6 -21.1 58 32 17 24.1 101.25   -23 LegendNANA
22:00 Legend Double Dagger -14.7 -21.0 59 36 10 24.1 101.32   -21 Clear
23:00 Legend Double Dagger -14.9 -21.0 60 30 8 24.1 101.37   -20 LegendNANA

Notes on Data Quality.

Legend

  • E = Estimated
  • M = Missing
  • NA = Not Available
  • ‡ = Partner data that is not subject to review by the National Climate Archives
Date modified: